Location: Couloutre
(47.4081°N, 3.2259°E)
Time: 23:06:35
(UTC+00:00)

USA 238 DEB - Pass Details

Date: 27 February 2020
Orbit: 1018 x 1194 km, 63.4° (Epoch: 31 March)

Event Time Altitude Azimuth Distance (km) Brightness Sun altitude
Rises 19:57:34 0° 319° (NW) 3,941 7.6 -25.8°
Reaches altitude 10° 20:00:12 10° 319° (NW) 3,005 6.8 -26.2°
Maximum altitude 20:07:24 83° 233° (SW) 1,170 3.8 -27.4°
Enters shadow 20:09:21 54° 153° (SSE) 1,396 4.0 -27.7°
